This demonstration page uses our WeatherBlox Daily Observations layout. Learn more.

Left ArrowRight Arrow

39.12711, -84.51439

Hourly Observations for September 26, 2018

Temp ( °F °C ) Dew Point ( °F °C ) Humidity (%) Winds ( mph kmh ) Pressure ( in mb ) Visibility ( mi km ) Precip ( " mm )
12:53 am 00:53 Mostly Cloudy 73 22.8 73 22.8 100 100 SSW 8 13 29.96 1015 10 16 0.00 0.00
1:28 am 01:28 Cloudy 73 22.8 73 22.8 100 100 SSW 9 15 29.94 1014 10 16 0.00 0.00
1:53 am 01:53 Cloudy 73 22.8 73 22.8 100 100 SSW 9 15 29.95 1014 10 16 0.00 0.00
2:33 am 02:33 Cloudy 74 23.3 73 22.8 97 97 SSW 13 20 29.94 1014 10 16 0.00 0.00
2:53 am 02:53 Mostly Cloudy 73 22.8 73 22.8 100 100 SSW 10 17 29.94 1014 10 16 0.00 0.00
3:27 am 03:27 Mostly Cloudy 74 23.3 72 22.2 94 94 SW 12 19 29.91 1013 10 16 0.00 0.00
3:49 am 03:49 Mostly Cloudy 73 23 72 22 94 94 SW 8 13 29.91 1013 10 16 0.00 0.00
3:53 am 03:53 Mostly Cloudy 74 23.3 72 22.2 94 94 SW 7 11 29.91 1013 10 16 0.00 0.00
4:43 am 04:43 Cloudy 74 23.3 73 22.8 97 97 SW 13 20 29.91 1013 10 16 0.00 0.03
4:53 am 04:53 Cloudy with Rain 73 22.8 73 22.8 100 100 SW 6 9 29.92 1013 5 8 0.03 0.76
5:21 am 05:21 Cloudy with Light Rain 73 22.8 73 22.8 100 100 SW 9 15 29.91 1013 10 16 0.04 1.02
5:28 am 05:28 Cloudy 73 22.8 73 22.8 100 100 SW 9 15 29.91 1013 10 16 0.04 1.02
5:53 am 05:53 Cloudy 72 22.2 72 22.2 100 100 SSW 10 17 29.92 1013 10 16 0.04 1.02
6:24 am 06:24 Cloudy with Light Rain 72 22.2 72 22.2 100 100 WSW 7 11 29.91 1013 10 16 0.00 0.03
6:31 am 06:31 Cloudy with Light Rain 72 22.2 72 22.2 100 100 SSW 8 13 29.91 1013 10 16 0.01 0.25
6:38 am 06:38 Cloudy with Light Rain 73 22.8 72 22.2 96 96 SW 8 13 29.91 1013 9 14 0.01 0.25
6:48 am 06:48 Cloudy with Light Rain 73 23 72 22 94 94 SW 7 11 29.91 1013 6 10 0.03 0.76
6:53 am 06:53 Cloudy with Light Rain 73 22.8 73 22.8 100 100 SW 8 13 29.94 1014 5 8 0.03 0.76
7:53 am 07:53 Cloudy with Light Rain 73 22.8 72 22.2 96 96 WSW 7 11 29.96 1015 10 16 0.01 0.25
8:53 am 08:53 Mostly Cloudy with Light Rain 72 22.2 70 21.1 94 94 WNW 12 19 29.98 1015 10 16 0.00 0.03
9:53 am 09:53 Mostly Cloudy 71 21.7 68 20 90 90 W 8 13 30.00 1016 10 16 0.00 0.03
10:53 am 10:53 Cloudy 72 22.2 67 19.4 84 84 VRB 6 9 30.01 1016 10 16 0.00 0.00
11:53 am 11:53 Cloudy 73 22.8 66 18.9 79 79 NW 9 15 30.04 1017 10 16 0.00 0.00
12:53 pm 12:53 Cloudy 70 21.1 64 17.8 82 82 NNW 13 20 30.06 1018 10 16 0.00 0.00
1:53 pm 13:53 Cloudy 70 21.1 62 16.7 76 76 NW 12 19 30.08 1019 10 16 0.00 0.00
2:53 pm 14:53 Mostly Cloudy 71 21.7 62 16.7 73 73 N 10 17 30.08 1019 10 16 0.00 0.00
3:53 pm 15:53 Mostly Sunny 71 21.7 60 15.6 68 68 NW 9 15 30.06 1018 10 16 0.00 0.00
4:53 pm 16:53 Mostly Cloudy 70 21.1 56 13.3 61 61 N 9 15 30.06 1018 10 16 0.00 0.00
5:53 pm 17:53 Partly Cloudy 70 21.1 55 12.8 59 59 NW 9 15 30.06 1018 10 16 0.00 0.00
6:53 pm 18:53 Sunny 68 20 52 11.1 57 57 NNW 9 15 30.08 1019 10 16 0.00 0.00
7:53 pm 19:53 Clear 64 17.8 53 11.7 68 68 Calm 30.08 1019 10 16 0.00 0.00
8:53 pm 20:53 Clear 59 15 57 13.9 93 93 Calm 30.10 1019 10 16 0.00 0.00
9:53 pm 21:53 Clear 56 13.3 56 13.3 100 100 Calm 30.13 1020 10 16 0.00 0.00
10:53 pm 22:53 Clear 55 12.8 55 12.8 100 100 Calm 30.14 1021 10 16 0.00 0.00
11:53 pm 23:53 Clear 55 12.8 55 12.8 100 100 Calm 30.14 1021 10 16 0.00 0.00

Powered by AerisWeather